Vorticity
nan nan nan nan nan nan nan nan nan nan nan nan nan nan nan nan nan nan nan nan nan nan nan nan nan nan nan nan nan nan nan nan nan nan nan nan nan nan nan nan nan nan nan
nan 8 8 8 8 7 8 8 8 8 7 7 7 7 7 7 7 7 7 8 9 7 8 8 8 7 8 6 7 8 9 9 10 7 7 11 10 8 10 9 9 9 nan
nan 8 7 7 7 8 8 8 8 8 8 8 8 8 7 7 7 7 7 8 8 8 9 8 9 7 6 8 8 8 11 10 8 7 8 12 8 9 11 11 9 10 nan
nan 7 8 9 8 8 8 9 9 8 9 8 8 8 8 8 8 7 8 8 9 9 9 9 9 8 8 7 9 9 8 9 8 8 7 8 9 10 9 10 11 9 nan
nan 9 9 10 9 10 10 9 10 9 8 9 8 8 8 9 10 11 7 8 9 8 9 9 9 11 9 8 7 9 9 9 6 7 9 9 11 6 5 11 11 9 nan
nan 9 9 10 9 9 9 9 9 9 9 9 9 9 7 8 13 11 8 9 9 8 9 10 12 12 10 8 4 7 13 9 6 8 7 6 9 12 10 6 8 9 nan
nan 9 10 9 9 9 9 9 9 9 9 9 10 10 9 8 12 12 10 4 7 9 9 9 10 11 11 9 10 9 9 8 5 7 8 7 8 10 11 9 8 9 nan
nan 10 9 9 9 9 9 9 9 9 9 9 9 9 9 11 14 11 9 6 8 8 9 10 9 9 13 15 9 10 9 8 11 10 9 11 10 11 10 8 8 10 nan
nan 9 10 10 9 8 9 9 9 9 9 9 10 11 9 11 14 10 6 9 10 11 11 11 12 11 18 17 7 9 10 11 13 7 6 10 10 9 8 10 12 8 nan
nan 9 10 10 10 10 10 9 9 9 9 10 10 11 10 13 11 12 4 6 10 11 12 14 14 13 17 16 8 9 12 13 10 8 10 10 11 11 10 5 5 9 nan
nan 11 11 10 10 11 9 10 9 8 10 11 10 11 11 11 12 15 6 2 7 8 9 11 21 26 10 11 11 12 16 16 12 5 10 12 13 13 12 12 9 7 nan
nan 11 11 10 10 10 11 9 10 10 10 9 10 9 11 12 13 12 14 5 -1 6 7 12 27 25 17 13 8 14 17 8 8 10 9 10 13 11 11 11 11 5 nan
nan 12 11 11 9 9 11 10 10 9 10 11 9 9 9 12 17 15 11 10 7 6 6 4 18 17 16 13 18 16 -0 1 8 11 9 9 11 12 11 8 10 10 nan
nan 11 11 11 11 9 8 10 10 10 10 9 10 10 10 11 10 12 11 12 15 12 11 8 7 11 11 14 13 8 5 8 8 8 10 10 8 11 10 9 7 9 nan
nan 12 11 12 12 10 10 10 9 9 11 10 9 11 11 10 19 15 11 10 13 18 10 11 12 10 8 8 9 9 10 11 10 9 9 9 11 10 9 12 7 9 nan
nan 11 11 11 11 11 11 9 7 12 14 11 8 11 14 7 18 19 14 6 16 16 6 6 8 9 8 10 11 11 12 12 10 9 10 10 9 10 11 8 8 9 nan
nan 14 11 11 12 12 10 10 15 12 7 9 10 11 10 8 6 14 15 14 13 6 6 10 11 10 9 11 14 13 13 10 11 12 9 9 11 11 10 8 7 11 nan
nan 14 14 14 12 11 11 11 11 12 13 14 17 15 14 16 9 14 13 6 1 6 12 11 11 11 12 12 12 13 11 13 12 10 9 10 11 11 10 7 9 12 nan
nan 17 26 20 12 13 14 13 12 11 10 11 14 14 17 18 17 17 7 1 8 9 11 12 12 12 12 12 13 15 13 11 10 10 10 11 12 11 8 8 9 7 nan
nan 12 19 15 19 21 17 13 16 14 13 12 9 12 15 8 8 9 8 12 12 12 12 13 13 15 14 13 13 12 12 13 10 11 11 10 12 12 10 9 10 8 nan
nan 9 12 13 11 14 15 14 15 18 20 16 11 19 14 5 10 12 11 12 12 12 13 13 13 14 13 13 12 11 10 11 11 12 10 10 15 10 10 11 11 10 nan
nan 12 11 13 10 12 13 12 13 13 13 18 20 15 10 9 10 13 14 12 12 13 14 14 14 13 13 11 9 10 11 10 11 11 10 13 10 11 10 11 10 11 nan
nan 11 12 13 12 11 13 14 13 12 11 13 13 10 16 18 13 12 12 14 15 14 13 14 14 11 11 11 11 11 10 12 12 11 12 13 10 10 10 11 10 10 nan
nan 8 10 10 9 10 11 12 11 12 13 12 13 12 11 13 14 14 13 16 17 15 12 12 13 12 10 10 11 12 11 13 11 15 17 8 9 12 10 10 11 11 nan
nan 13 10 10 12 10 8 9 10 12 13 12 10 10 12 13 12 13 14 15 15 14 11 12 12 13 14 12 12 12 15 15 15 14 13 12 11 8 10 11 11 9 nan
nan nan nan nan nan nan nan nan nan nan nan nan nan nan nan nan nan nan nan nan nan nan nan nan nan nan nan nan nan nan nan nan nan nan nan nan nan nan nan nan nan nan nan
CAPE
2102 1838 2027 1749 2002 2090 1910 2153 2221 2313 2719 2660 2771 2798 2921 3081 3292 3148 3069 2655 2229 1929 1088 671 322 1 0 0 0 0 0 0 0 0 0 0 0 0 0 0 0 0 0
2619 2794 1899 1785 1702 1671 1789 1717 1964 2233 2384 2570 2494 2768 2913 2946 3064 3071 2806 2394 2647 2408 1833 1225 721 105 21 9 0 0 0 0 0 0 0 0 0 0 0 0 0 0 0
2604 1875 1828 1954 1905 1899 1845 1722 1775 1999 2200 2128 2265 2460 2631 2698 2738 2806 2716 2532 2698 2673 2387 1831 1398 697 307 224 6 0 0 0 0 0 0 0 0 0 0 0 0 0 0
1714 1701 2241 1830 1871 1880 2114 2441 2158 2238 2209 2142 2125 2276 2450 2422 2388 2530 2487 2635 2659 2701 2711 2235 1810 1280 832 628 246 18 0 0 0 0 0 0 0 0 0 0 0 0 0
2601 2150 2705 2797 2684 2666 2912 2794 2668 2640 2307 2151 2137 2166 2306 2288 2133 2328 2398 2374 2566 2686 2720 2484 2013 1423 566 442 530 307 0 0 0 0 0 0 0 0 0 0 0 0 0
2632 2728 3066 3438 3376 3514 3534 3475 3365 2847 2715 2600 2513 2034 2006 1841 1152 1214 1255 1767 2008 2350 2649 2661 2466 870 149 0 0 0 0 0 0 0 0 0 0 0 0 0 0 0 0
2696 2978 3242 3535 3571 3663 3494 3390 3376 3182 3128 2920 2590 2430 2309 2181 1020 493 585 1587 1436 1683 2334 2594 2536 2118 964 770 34 0 0 0 0 0 0 0 0 0 0 0 0 0 0
2685 2911 3233 3472 3566 3711 3772 3731 3826 3195 3221 2978 2696 2803 2497 2311 1207 688 36 1408 1734 2031 2073 2427 3275 2737 2140 685 554 73 0 0 0 0 0 0 0 0 0 0 0 0 0
2625 2883 3181 3311 3478 3645 3714 3848 3672 3387 3246 2778 2825 3197 3120 3011 1361 876 16 1593 1726 2010 2482 3325 3465 2951 1966 103 390 481 10 0 0 0 0 0 0 0 0 0 0 0 0
2790 2807 3080 3384 3514 3617 3743 3962 3881 2955 3133 2463 3059 3363 2770 3266 2148 484 0 1760 1855 2081 2953 3302 2380 2032 1667 0 126 517 20 0 0 0 0 0 0 0 0 0 0 0 0
2493 2566 3005 3218 3603 3693 3901 3923 3651 3174 3066 3566 3492 3729 3556 3168 3420 186 0 1945 1881 1988 2114 2126 2142 655 548 0 0 261 0 0 0 0 0 0 0 0 0 0 0 0 0
2461 2487 3060 3137 2545 2329 3692 3596 3567 3561 3780 3663 3962 3207 2484 3493 2297 874 2 45 1662 2057 2465 1957 2310 869 42 0 0 0 0 0 0 0 0 0 0 0 0 0 0 0 0
2678 3041 3151 3121 2616 2932 3565 3107 2698 3189 2662 2808 2364 2334 2141 2097 2797 1591 20 1 1 232 2090 959 30 9 0 0 0 0 0 0 0 0 0 0 0 0 0 0 0 0 0
2206 2758 2796 2813 2540 2559 2371 2457 2501 2308 2382 2361 2054 2121 1963 2000 2007 2113 1733 1261 145 0 5 218 432 0 0 0 0 0 0 0 0 0 0 0 0 0 0 0 0 0 0
2363 2298 2295 2294 2270 2427 2708 2159 2136 2744 1951 2191 2221 2098 1893 1781 1616 1475 1939 2446 2323 1962 923 37 0 1 2 0 0 0 1 0 0 0 0 0 0 0 0 0 0 0 0
2273 2280 2218 2096 2087 2163 2220 2571 1642 1183 900 1287 1093 989 1814 1258 505 1172 1467 1537 901 72 1232 1686 40 2 0 0 1 1 1 0 0 0 0 0 0 0 0 0 0 0 0
2223 1952 1913 1482 1974 2131 2303 2263 2350 1705 1218 353 665 706 373 703 2 83 931 208 0 0 1397 2119 1366 133 228 7 1 1 0 0 0 0 0 0 0 0 0 0 0 0 0
2079 1036 1995 1939 1827 1808 1959 2141 2207 2198 2333 2466 509 231 54 1 1 1 0 1 183 11 1050 1774 1641 405 0 0 0 3 0 0 0 0 0 0 0 0 0 0 0 0 0
10 78 1596 1608 1800 1708 1927 2008 2109 2182 2218 2264 2298 318 1 1 2 1 1 881 1908 2021 1360 1301 1476 603 59 1 2 0 0 0 0 0 0 0 0 0 0 0 0 0 0
10 0 8 456 1424 2240 2061 2187 2369 2443 2603 2793 3003 3157 529 21 903 538 0 10 1277 2431 2552 1413 1054 162 2 3 2 1 0 2 0 0 0 0 0 0 0 0 0 0 0
14 11 1 7 7 85 340 1580 2318 3504 3336 3548 3501 3418 2059 2718 3167 3123 2364 1034 1312 1924 1826 1271 350 7 2 3 1 1 2 1 0 0 0 0 0 0 0 0 0 0 0
1 0 7 14 15 8 6 8 533 465 1493 3014 3318 1029 622 2633 2743 2827 3022 2618 1646 1370 1090 586 122 0 1 1 2 0 2 0 0 0 0 0 0 0 0 0 0 0 0
4 0 0 0 4 1 3 8 12 15 6 161 400 1073 1945 2106 1919 2145 2331 2218 1578 643 96 10 0 0 0 0 0 0 0 0 0 0 0 0 0 0 0 0 0 0 0
0 8 1 5 2 0 0 3 2 0 5 8 6 2 0 16 131 187 167 113 20 0 0 0 0 0 0 0 0 0 0 0 0 0 0 0 0 0 0 0 0 0 0
0 0 0 2 0 3 1 0 2 5 6 5 6 4 9 5 3 1 2 2 0 0 0 0 0 0 0 0 0 0 0 0 0 0 0 0 0 0 0 0 0 0 0
0 0 0 0 0 0 0 0 0 1 2 6 9 6 6 6 8 8 1 0 0 0 0 0 0 0 0 0 0 0 0 0 0 0 0 0 0 0 0 0 0 0 0